www.pogodaiklimat.ru

Погода и климат >> Архив погоды >> Канада >> Нунавут >> Озеро Робертсон


ПОГОДА на Озере Робертсон

  • Прогноз погоды на Озере Робертсон
  • Монитор погоды на Озере Робертсон

АРХИВ ПОГОДЫ на Озере Робертсон

Время (UTC), дата Ветер
(напр.,м/с)
 
Видим.   Явления Облачность Т
(С)
Тd
(С)
f
(%)
Тe
(С)
Тes
(С)
Комфортность P
(гПа)
Po
(гПа)
Тmin
(С)
Tmax
(С)
R
(мм)
R24
(мм)
S
(см)
18 16.01 СЗ 13 н/о н/о -33.1 -36.3 73 -53 -53 опасность
обморожения
1021.3 987.8 -33.2 -31.2
21 16.01 СЗ 11 н/о н/о -33.0 -36.3 72 -51 -51 опасность
обморожения
1021.2 987.7
00 17.01 З 6 н/о н/о -32.2 -35.3 74 -47 -47 опасность
обморожения
1020.3 986.8 -33.2 -32.2
03 17.01 С 14 н/о н/о -29.3 -32.1 77 -48 -48 опасность
обморожения
1019.8 986.4
06 17.01 С 13 н/о н/о -30.2 -33.0 76 -49 -49 опасность
обморожения
1020.6 987.2 -33.2 -29.0 3
09 17.01 С 11 н/о н/о -31.2 -34.2 75 -49 -49 опасность
обморожения
1022.6 989.1
12 17.01 С 10 н/о н/о -33.0 -36.1 74 -51 -51 опасность
обморожения
1024.0 990.4 -33.0 -29.0
15 17.01 СЗ 8 н/о н/о -34.3 -37.6 72 -51 -51 опасность
обморожения
1026.0 992.4
18 17.01 СЗ 8 н/о н/о -35.7 -39.1 71 -53 -53 опасность
обморожения
1026.9 993.1 -35.7 -30.2
21 17.01 СЗ 8 н/о н/о -34.9 -38.3 71 -52 -52 опасность
обморожения
1027.3 993.5
00 18.01 З 6 н/о н/о -36.0 -39.5 70 -51 -51 опасность
обморожения
1027.8 993.9 -36.0 -33.0
03 18.01 З 5 н/о н/о -36.0 -39.5 70 -50 -50 опасность
обморожения
1027.5 993.5
06 18.01 СЗ 4 н/о н/о -37.0 -40.6 69 -50 -50 опасность
обморожения
1028.0 993.9 -37.0 -30.2 7
09 18.01 СЗ 4 н/о н/о -37.2 -40.9 68 -49 -49 опасность
обморожения
1028.9 994.8
12 18.01 СЗ 5 н/о н/о -37.4 -41.0 69 -51 -51 опасность
обморожения
1029.7 995.5 -37.5 -30.2
15 18.01 СЗ 4 н/о н/о -38.1 -41.9 67 -51 -51 опасность
обморожения
1030.7 996.4
18 18.01 СЗ 6 н/о н/о -36.8 -40.5 68 -52 -52 опасность
обморожения
1032.3 998.0 -38.3 -36.5
21 18.01 С 7 н/о н/о -36.7 -40.3 69 -53 -53 опасность
обморожения
1034.4 1000.0
00 19.01 З 3 н/о н/о -37.4 -41.0 69 -48 -48 опасность
обморожения
1036.3 1001.8 -38.3 -36.1
03 19.01 СЗ 4 н/о н/о -36.1 -39.8 69 -48 -48 опасность
обморожения
1036.5 1002.0
06 19.01 З 4 н/о н/о -36.4 -40.0 69 -49 -49 опасность
обморожения
1036.0 1001.6 -38.3 -36.0
09 19.01 З 8 н/о н/о -34.3 -37.8 70 -51 -51 опасность
обморожения
1034.0 999.8
12 19.01 З 7 н/о н/о -32.1 -35.3 73 -47 -47 опасность
обморожения
1032.5 998.4 -37.6 -36.0
15 19.01 З 8 н/о н/о -31.2 -34.2 75 -47 -47 опасность
обморожения
1029.6 995.7
18 19.01 З 7 н/о н/о -30.4 -33.3 76 -45 -45 опасность
обморожения
1027.9 994.1 -37.6 -30.1
21 19.01 З 10 н/о н/о -29.0 -31.8 77 -46 -46 опасность
обморожения
1026.3 992.7
00 20.01 З 10 н/о н/о -29.3 -32.2 76 -46 -46 опасность
обморожения
1025.0 991.5 -36.4 -28.9
03 20.01 З 9 н/о н/о -31.1 -34.0 75 -48 -48 опасность
обморожения
1023.3 989.8
06 20.01 З 9 н/о н/о -30.8 -33.7 76 -47 -47 опасность
обморожения
1021.8 988.4 -36.4 -28.9 14
09 20.01 З 7 н/о н/о -31.1 -34.1 75 -46 -46 опасность
обморожения
1020.0 986.7
12 20.01 З 5 н/о н/о -30.9 -33.9 75 -44 -44 опасность
обморожения
1017.0 983.8 -31.1 -28.9
15 20.01 З 5 н/о {осадки} н/о -28.9 -31.8 76 -41 -41 опасность
обморожения
1013.8 980.7 0.4
18 20.01 З 3 н/о {осадки} н/о -28.4 -31.0 78 -37 -37 опасность
обморожения
1011.5 978.5 -31.1 -28.0 0.4
21 20.01 С 2 н/о н/о -30.1 -32.9 76 -38 -38 опасность
обморожения
1010.3 977.3
00 21.01 н/о н/о -33.0 -36.0 74 1010.1 977.0 -33.0 -28.0
03 21.01 С 4 н/о н/о -31.6 -34.7 74 -43 -43 опасность
обморожения
1010.5 977.5
06 21.01 н/о н/о -33.6 -36.8 73 1011.4 978.3 -33.7 -28.0 10
09 21.01 З 2 н/о н/о -36.0 -39.4 71 -45 -45 опасность
обморожения
1013.5 980.2
12 21.01 З 5 н/о н/о -37.9 -41.5 69 -52 -52 опасность
обморожения
1014.6 981.0 -37.9 -28.0
15 21.01 З 4 н/о н/о -37.5 -41.2 68 -50 -50 опасность
обморожения
1015.0 981.5
18 21.01 З 5 н/о н/о -37.4 -41.1 68 -52 -52 опасность
обморожения
1016.0 982.4 -38.4 -33.6
21 21.01 З 3 н/о н/о -35.7 -39.3 69 -47 -47 опасность
обморожения
1016.3 982.6
00 22.01 З 8 н/о н/о -33.3 -36.6 72 -49 -49 опасность
обморожения
1016.2 982.6 -38.4 -33.3
03 22.01 З 7 н/о н/о -34.3 -37.5 73 -50 -50 опасность
обморожения
1015.6 981.9
06 22.01 З 3 н/о н/о -35.9 -39.4 70 -47 -47 опасность
обморожения
1015.2 981.5 -38.4 -32.8 0
09 22.01 З 3 н/о н/о -36.4 -39.9 70 -46 -46 опасность
обморожения
1015.1 981.4
12 22.01 С 3 н/о н/о -36.6 -40.2 69 -47 -47 опасность
обморожения
1014.3 980.8 -36.8 -32.8
15 22.01 С 1 н/о н/о -37.3 -41.0 68 -39 -39 опасность
обморожения
1014.5 980.9
18 22.01 С 3 н/о н/о -38.5 -42.2 68 -49 -49 опасность
обморожения
1015.4 981.6 -38.5 -35.6
21 22.01 С 4 н/о н/о -39.0 -42.8 67 -52 -52 опасность
обморожения
1016.2 982.4
00 23.01 СЗ 3 н/о н/о -40.5 -44.5 65 -51 -51 опасность
обморожения
1017.9 983.9 -40.5 -36.5
03 23.01 СЗ 3 н/о н/о -41.3 -45.4 64 -53 -53 опасность
обморожения
1019.2 985.1
06 23.01 СЗ 4 н/о н/о -40.8 -44.9 64 -55 -55 опасность
обморожения
1020.7 986.5 -41.5 -35.6
09 23.01 СЗ 9 н/о н/о -42.1 -46.3 63 -62 -62 опасность
обморожения
1022.1 987.8
12 23.01 З 5 н/о н/о -41.7 -46.0 63 -57 -57 опасность
обморожения
1023.5 989.1 -42.1 -35.6

 

Местоположение метеостанции Озеро Робертсон (Нунавут, Канада): широта 65.10 долгота -102.40 высота над уровнем моря 244 м.

В архиве по умолчанию представлена погода на Озере Робертсон за последнюю неделю. Архивные данные за месяц целиком и за предыдущие месяцы, начиная с января 2011 года, Вы можете получить, выбрав интересующий диапазон дат из раскрывающегося списка и нажав кнопку "Ввод!".


*Определитесь, кто Вы:
робот инопланетянин человек

Внимание! Время в таблицах - всемирное. Для получения местного времени необходимо прибавить поправку, которая равна -6 ч.

Смотрите также архив погоды в соседних городах и на ближайших метеорологических станциях:

Погода в Ки Лейк 2 (Саскачеван, Канада) (211 км)
Погода на Реке Ханбери (Северо-Западные территории, Канада) (215 км)
Погода в Глеичене (Альберта, Канада) (292 км)
Погода в Бейкер-Лейке (Нунавут, Канада) (314 км)
Погода в Бейкер Лейк (Нунавут, Канада) (316 км)
Погода на Острове Хат (Нунавут, Канада) (373 км)
Погода в Люпине (Нунавут, Канада) (413 км)
Погода в Саскатуне (Саскачеван, Канада) (413 км)
Погода в Форте Рельянс (Северо-Западные территории, Канада) (422 км)
Погода в Кеймбридж-Бее (Нунавут, Канада) (460 км)

Пояснения к столбцам:

Ветер - указаны скорость ветра в м/с - средняя за 10 мин, порывы в срок и между сроками (в фигурных скобках) и направление, откуда дует ветер: С - северный, СВ - северо-восточный, В - восточный, ЮВ - юго-восточный, Ю - южный, ЮЗ - юго-западный, З - западный, СЗ - северо-западный.
Видимость - горизонтальная дальность видимости в метрах или километрах. При видимости от 1 до 10 км при отсутствии осадков обычно наблюдается дымка, при ухудшении видимости до 1 км и менее - туман. В сухую погоду видимость может ухудшаться дымом, пылью или мглою.
Явления - указаны атмосферные явления, наблюдавшиеся в срок или в последний час перед сроком; фигурными скобками обозначены явления, наблюдавшиеся между сроками (за 1-3 часа до срока); квадратными скобками обозначены град или гололедные отложения с указанием их диаметра в мм.
Облачность - указаны через наклонную черту общая и нижняя облачность в баллах и высота нижней границы облаков в метрах; квадратными скобками обозначены формы облаков: Ci - перистые, Cs - перисто-слоистые, Cc - перисто-кучевые, Ac - высококучевые, As - высокослоистые, Sc - слоисто-кучевые, Ns - слоисто-дождевые, Cu - кучевые, Cb - кучево-дождевые. Подробнее классификацию облаков см. в Атласе облаков (PDF).
T - Температура воздуха - температура, измеренная на высоте 2 м над землей.
Td - Температура точки росы - температура, при понижении до которой содержащийся в воздухе водяной пар достигнет насыщения.
f - Относительная влажность воздуха - влажноcть воздуха, измеренная на высоте 2 м над землей.
Te - Эффективная температура - температура, которую ощущает одетый по сезону человек в тени. Характеристика душности погоды. При расчете учитывается влияние влажности воздуха и скорости ветра на теплоощущения человека.
Tes - Эффективная температура на солнце - температура, которую ощущает человек, с поправкой на солнечный нагрев. Характеристика знойности погоды. Зависит от высоты солнца над горизонтом, облачности и скорости ветра. Ночью, в пасмурную погоду, а также при ветре 12 м/с и более поправка равна нулю.
P - Атмосферное давление - приведенное к уровню моря атмосферное давление.
Po - Атмосферное давление - измеренное на уровне метеостанции атмосферное давление.
Tmin - Минимальная температура - минимум температуры воздуха на высоте 2 м над землей.
Tmax - Максимальная температура - максимум температуры воздуха на высоте 2 м над землей.
R - Количество осадков - Количество выпавших осадков за период времени, мм. При наведении курсора мыши на число - период времени, за который выпало указанное количество осадков.
R24 - Количество осадков - Количество выпавших осадков за 24 часа, мм.
S - Снежный покров - Высота снежного покрова, см. При наведении курсора мыши на число - состояние снежного покрова и степень покрытия местности в баллах.